Date String (YYYY-MM-DD hh:mm:ss) UTC,Instrument flags,Ambient pressure (hPa),Sample flow (lpm),Bypass flow (lpm),Sample temperature (°C),Ambient temperature (°C),ASC tube jacket temperature (°C),LED temperature (°C),Box temperature (°C),Sample RH (%),Span deviation,Mass concentration (μg/m³),Mass concentration (μg/m³),Mass concentration (μg/m³)
DateTimeUTC,F1_M11,P_M11,Q1_M11,Q2_M11,T1_M11,T2_M11,T3_M11,T4_M11,T5_M11,U1_M11,ZSPAN_M11,X0_M11,X2_M11,X1_M11
2022-12-07 03:00:00,,0822.3,5.00,0.00,22.0,21.1,00.0,30.8,23.7,11.2,0000.0,0002.20,0001.33,0000.97
2022-12-07 03:01:00,,0822.3,5.00,0.00,21.9,20.9,00.0,30.8,23.7,11.2,0000.0,0002.24,0001.33,0000.96
2022-12-07 03:02:00,,0822.2,5.00,0.00,21.9,20.7,00.0,30.8,23.6,11.1,0000.0,0001.98,0001.29,0000.97
2022-12-07 03:03:00,,0822.2,5.00,0.00,21.9,20.5,00.0,30.8,23.6,11.0,0000.0,0001.94,0001.28,0000.97
2022-12-07 03:04:00,,0822.4,5.00,0.00,21.9,20.4,00.0,30.8,23.5,11.0,0000.0,0001.92,0001.29,0000.99
2022-12-07 03:05:00,,0822.2,5.00,0.00,21.8,20.3,00.0,30.8,23.5,11.1,0000.0,0001.95,0001.30,0001.01
2022-12-07 03:06:00,,0822.2,5.00,0.00,21.8,20.2,00.0,30.8,23.4,10.8,0000.0,0002.04,0001.31,0001.00
2022-12-07 03:07:00,,0822.2,5.01,0.00,21.8,20.1,00.0,30.8,23.4,10.9,0000.0,0001.98,0001.28,0000.98
2022-12-07 03:08:00,,0822.4,5.01,0.00,21.7,20.0,00.0,30.8,23.3,11.0,0000.0,0001.85,0001.23,0000.97
2022-12-07 03:09:00,,0822.3,5.00,0.00,21.7,20.5,00.0,30.7,23.4,11.2,0000.0,0001.81,0001.21,0000.98
2022-12-07 03:10:00,,0822.3,5.00,0.00,21.8,21.5,00.0,30.7,23.7,11.1,0000.0,0001.87,0001.24,0000.99
2022-12-07 03:11:00,,0822.3,4.99,0.00,21.9,22.1,00.0,30.7,24.0,11.0,0000.0,0001.83,0001.23,0000.99
2022-12-07 03:12:00,,0822.3,4.99,0.00,22.0,21.7,00.0,30.8,24.0,11.1,0000.0,0001.77,0001.21,0001.00
2022-12-07 03:13:00,,0822.2,5.00,0.00,22.0,21.3,00.0,30.8,23.8,11.0,0000.0,0001.79,0001.22,0001.00
2022-12-07 03:14:00,,0822.2,5.00,0.00,22.0,21.0,00.0,30.8,23.8,11.0,0000.0,0001.80,0001.22,0000.99
2022-12-07 03:15:00,,0822.2,5.00,0.00,21.9,20.8,00.0,30.8,23.7,11.1,0000.0,0001.76,0001.20,0000.99
2022-12-07 03:16:00,,0822.1,4.99,0.00,21.9,20.6,00.0,30.8,23.6,11.1,0000.0,0001.62,0001.16,0000.99
2022-12-07 03:17:00,,0822.0,5.01,0.00,21.9,20.5,00.0,30.8,23.6,11.0,0000.0,0001.60,0001.15,0001.00
2022-12-07 03:18:00,,0822.1,5.01,0.00,21.9,20.3,00.0,30.8,23.5,11.1,0000.0,0001.87,0001.26,0001.03
2022-12-07 03:19:00,,0822.1,5.01,0.00,21.8,20.2,00.0,30.8,23.4,11.1,0000.0,0002.10,0001.35,0001.06
2022-12-07 03:20:00,,0822.1,4.99,0.00,21.8,20.2,00.0,30.8,23.4,11.0,0000.0,0002.20,0001.39,0001.08
2022-12-07 03:21:00,,0822.2,4.99,0.00,21.8,20.1,00.0,30.8,23.4,11.0,0000.0,0002.54,0001.48,0001.09
2022-12-07 03:22:00,,0822.0,5.00,0.00,21.7,20.0,00.0,30.8,23.3,11.0,0000.0,0002.65,0001.49,0001.09
2022-12-07 03:23:00,,0822.2,5.01,0.00,21.7,20.5,00.0,30.7,23.5,10.9,0000.0,0002.65,0001.48,0001.08
2022-12-07 03:24:00,,0822.2,5.01,0.00,21.8,21.7,00.0,30.7,23.8,10.9,0000.0,0002.64,0001.47,0001.07
2022-12-07 03:25:00,,0822.2,4.99,0.00,22.0,22.1,00.0,30.7,24.0,10.9,0000.0,0002.66,0001.47,0001.07
2022-12-07 03:26:00,,0822.1,4.99,0.00,22.0,21.6,00.0,30.8,23.9,10.9,0000.0,0002.65,0001.47,0001.07
2022-12-07 03:27:00,,0822.1,5.00,0.00,22.0,21.3,00.0,30.8,23.8,10.8,0000.0,0002.67,0001.48,0001.06
2022-12-07 03:28:00,,0822.3,5.00,0.00,22.0,20.9,00.0,30.9,23.7,10.8,0000.0,0002.66,0001.48,0001.07
2022-12-07 03:29:00,,0822.2,5.00,0.00,21.9,20.7,00.0,30.9,23.6,10.9,0000.0,0002.49,0001.42,0001.06
2022-12-07 03:30:00,,0822.2,5.00,0.00,21.9,20.5,00.0,30.9,23.5,10.9,0000.0,0002.42,0001.40,0001.05
2022-12-07 03:31:00,,0822.3,5.01,0.00,21.9,20.4,00.0,30.8,23.5,10.9,0000.0,0002.62,0001.41,0001.04
2022-12-07 03:32:00,,0822.2,5.01,0.00,21.8,20.2,00.0,30.8,23.4,10.9,0000.0,0002.41,0001.36,0001.04
2022-12-07 03:33:00,,0822.1,4.99,0.00,21.8,20.1,00.0,30.8,23.4,10.9,0000.0,0002.30,0001.36,0001.05
2022-12-07 03:34:00,,0822.2,4.99,0.00,21.8,20.1,00.0,30.8,23.4,10.8,0000.0,0002.30,0001.36,0001.05
2022-12-07 03:35:00,,0822.2,4.99,0.00,21.7,20.1,00.0,30.8,23.3,11.0,0000.0,0002.27,0001.35,0001.04
2022-12-07 03:36:00,,0822.2,5.00,0.00,21.7,20.0,00.0,30.8,23.2,11.0,0000.0,0002.22,0001.33,0001.03
2022-12-07 03:37:00,,0822.2,5.02,0.00,21.7,20.7,00.0,30.7,23.5,10.9,0000.0,0002.21,0001.32,0001.02
2022-12-07 03:38:00,,0822.2,5.00,0.00,21.9,21.7,00.0,30.7,23.8,10.9,0000.0,0002.20,0001.32,0001.03
2022-12-07 03:39:00,,0822.2,4.99,0.00,22.0,21.9,00.0,30.7,24.0,10.7,0000.0,0002.15,0001.30,0001.01
2022-12-07 03:40:00,,0822.0,4.99,0.00,22.0,21.5,00.0,30.8,23.9,10.7,0000.0,0002.06,0001.26,0000.99
2022-12-07 03:41:00,,0822.2,5.00,0.00,22.0,21.2,00.0,30.8,23.8,10.7,0000.0,0001.99,0001.21,0000.97
2022-12-07 03:42:00,,0822.2,5.00,0.00,22.0,20.9,00.0,30.8,23.7,10.7,0000.0,0001.88,0001.19,0000.95
2022-12-07 03:43:00,,0822.2,4.99,0.00,21.9,20.7,00.0,30.8,23.6,10.7,0000.0,0001.87,0001.17,0000.94
2022-12-07 03:44:00,,0822.2,5.00,0.00,21.9,20.5,00.0,30.8,23.6,10.8,0000.0,0001.90,0001.15,0000.92
2022-12-07 03:45:00,,0822.2,5.01,0.00,21.9,20.4,00.0,30.8,23.5,10.8,0000.0,0001.87,0001.15,0000.92
2022-12-07 03:46:00,,0822.2,5.00,0.00,21.8,20.2,00.0,30.8,23.4,10.8,0000.0,0001.88,0001.16,0000.92
2022-12-07 03:47:00,,0822.2,5.01,0.00,21.8,20.1,00.0,30.8,23.4,10.8,0000.0,0001.91,0001.16,0000.91
2022-12-07 03:48:00,,0822.2,4.99,0.00,21.8,20.0,00.0,30.8,23.3,10.7,0000.0,0001.95,0001.16,0000.89
2022-12-07 03:49:00,,0822.3,4.99,0.00,21.7,20.0,00.0,30.8,23.3,10.8,0000.0,0001.95,0001.15,0000.88
2022-12-07 03:50:00,,0822.2,5.00,0.00,21.7,20.0,00.0,30.8,23.3,10.9,0000.0,0001.90,0001.14,0000.88
2022-12-07 03:51:00,,0822.3,5.02,0.00,21.7,20.8,00.0,30.7,23.5,10.8,0000.0,0002.01,0001.18,0000.88
2022-12-07 03:52:00,,0822.3,5.00,0.00,21.9,21.9,00.0,30.7,23.9,10.8,0000.0,0002.03,0001.18,0000.89
2022-12-07 03:53:00,,0822.2,4.99,0.00,22.0,22.1,00.0,30.7,24.0,10.7,0000.0,0001.94,0001.18,0000.90
2022-12-07 03:54:00,,0822.3,4.99,0.00,22.0,21.6,00.0,30.8,23.9,10.7,0000.0,0001.81,0001.16,0000.90
2022-12-07 03:55:00,,0822.3,5.00,0.00,22.0,21.3,00.0,30.8,23.8,10.7,0000.0,0001.68,0001.13,0000.89
2022-12-07 03:56:00,,0822.2,5.01,0.00,22.0,21.0,00.0,30.9,23.7,10.8,0000.0,0001.66,0001.11,0000.89
2022-12-07 03:57:00,,0822.3,5.00,0.00,21.9,20.7,00.0,30.9,23.6,10.8,0000.0,0001.72,0001.12,0000.89
2022-12-07 03:58:00,,0822.3,5.00,0.00,21.9,20.5,00.0,30.9,23.6,10.8,0000.0,0001.74,0001.13,0000.90
2022-12-07 03:59:00,,0822.3,5.00,0.00,21.9,20.4,00.0,30.8,23.5,10.7,0000.0,0001.77,0001.15,0000.91
